{"data":{"norad_id":58879,"intl_designator":"2024-020D","name":"STARLINK-31296","alt_names":[],"object_type":"PAYLOAD","status":"ACTIVE","operator":null,"country":"US","launch_date":"2024-01-29","launch_site_code":"AFWTR","launch_vehicle":null,"mission":null,"orbit_class":"UNKNOWN","rcs_meters":null,"size_class":null,"mass_kg":null,"dimensions":null,"purposes":["comms"],"wikipedia_slug":null,"has_3d_model":false,"image_url":null,"decayed_at":null,"tle_current":{"epoch":"2026-09-20T03:03:06.626592Z","epoch_age_seconds":184736,"freshness":"STALE","line1":"1 58879U 24020D   26263.12716003  .00000732  00000+0  32790-4 0  9990","line2":"2 58879  53.1584 111.3435 0001045  98.4518 261.6603 15.34406851148237","mean_motion":15.34406851,"eccentricity":0.0001045,"inclination_deg":53.1584,"raan_deg":111.3435,"arg_perigee_deg":98.4518,"mean_anomaly_deg":261.6603,"bstar":3.279e-5,"rev_number":14823,"period_min":93.847339058837,"perigee_km":461.96801198987,"apogee_km":463.3977433443,"semimajor_km":6840.8198776671,"source":"CELESTRAK","updated_at":"2026-09-21T09:00:33.992365Z"}}}